Pecs, Hungary

1:17 PM CET on February 11, 2016 (GMT +0100)
Pecs

Weather History for LHPP - October, 2012

Change the Weather History Date:

Tuesday, October 9, 2012

  Actual Average Record
Temperature  
Mean Temperature 48 °F -  
Max Temperature 59 °F 58 °F - ()
Min Temperature 37 °F 42 °F - ()
Degree Days  
Heating Degree Days 17    
Moisture  
Dew Point 39 °F    
Average Humidity 62    
Maximum Humidity 87    
Minimum Humidity 38    
Precipitation  
Precipitation 0.00 in 0.06 in - ()
Sea Level Pressure  
Sea Level Pressure 29.92 in    
Wind  
Wind Speed 5 mph ()    
Max Wind Speed 15 mph    
Max Gust Speed -    
T = Trace of Precipitation, MM = Missing Value Source: Averaged Metar Reports

Daily Weather History Graph

Daily Weather History Graph

Search for Another Location

Airport or City:

Trip Planner

Search our weather history database for the weather conditions in past years. The results will help you decide how hot, cold, wet, or windy it might be!

Date:

Astronomy

Oct. 09, 2012 Rise Set
Actual Time 6:56 AM CEST 6:11 PM CEST
Civil Twilight 6:26 AM CEST 6:41 PM CEST
Nautical Twilight 5:51 AM CEST 7:15 PM CEST
Astronomical Twilight 5:16 AM CEST 7:50 PM CEST
Moon No Moon Rise 2:45 PM CEST (10/9)
Length of Visible Light 12h 15m
Length of Day
11h 15m
Last Quarter, 39% of the Moon is Illuminated
Oct 9
Last Quarter
Oct 15
New
Oct 22
First Quarter
Oct 29
Full
Nov 7
Last Quarter

Hourly Weather History & Observations

Time (CEST) Temp. Windchill Dew Point Humidity Pressure Visibility Wind Dir Wind Speed Gust Speed Precip Events Conditions
12:45 AM 42.8 °F - 35.6 °F 76% 30.06 in - ESE 1.2 mph - N/A   Clear
1:45 AM 42.8 °F - 33.8 °F 70% 30.06 in - East 2.3 mph - N/A   Clear
2:00 AM 43 °F - 34 °F 62% 30.09 in 47 mi East 2.2 mph - -   Partly Cloudy
2:45 AM 42.8 °F - 33.8 °F 70% 30.04 in - ENE 2.3 mph - N/A   Clear
3:45 AM 41.0 °F 39.0 °F 33.8 °F 76% 30.01 in - ESE 3.5 mph - N/A   Clear
4:45 AM 39.2 °F 37.0 °F 33.8 °F 81% 30.01 in - East 3.5 mph - N/A   Clear
5:45 AM 39.2 °F 35.0 °F 33.8 °F 81% 29.98 in - SE 5.8 mph - N/A   Clear
6:15 AM 37.4 °F 34.9 °F 33.8 °F 87% 29.98 in - SE 3.5 mph - N/A   Clear
6:45 AM 37.4 °F 34.9 °F 33.8 °F 87% 29.98 in - East 3.5 mph - N/A   Clear
7:00 AM - - - N/A% - - ESE 4.6 mph - N/A   Clear
7:15 AM 37.4 °F 33.8 °F 33.8 °F 87% 29.98 in - East 4.6 mph - N/A   Clear
7:45 AM 41.0 °F 39.0 °F 35.6 °F 81% 29.98 in - ESE 3.5 mph - N/A   Clear
8:45 AM 46.4 °F 42.9 °F 39.2 °F 76% 29.95 in - SE 6.9 mph - N/A   Clear
9:15 AM 48.2 °F - 41.0 °F 76% 29.95 in - SSE 6.9 mph - N/A   Clear
9:45 AM 50.0 °F - 41.0 °F 71% 29.95 in - SSE 5.8 mph - N/A   Clear
10:00 AM - - - N/A% - - South 11.5 mph - N/A   Dust Whirls
10:45 AM 55.4 °F - 41.0 °F 58% 29.95 in - SSE 11.5 mph - N/A   Clear
11:15 AM 55.4 °F - 41.0 °F 58% 29.92 in - SE 12.7 mph - N/A   Clear
11:45 AM 55.4 °F - 41.0 °F 58% 29.92 in - SE 12.7 mph - N/A   Clear
12:15 PM 57.2 °F - 39.2 °F 51% 29.92 in - SSE 15.0 mph - N/A   Clear
1:00 PM - - - N/A% - - SSE 11.5 mph - N/A   Dust Whirls
1:15 PM 59.0 °F - 39.2 °F 48% 29.89 in - SSE 12.7 mph - N/A   Clear
1:45 PM 59.0 °F - 39.2 °F 48% 29.89 in - SSE 9.2 mph - N/A   Clear
2:00 PM 58 °F - 39 °F 38% 29.88 in 37 mi SSE 8.9 mph - -   Partly Cloudy
2:15 PM 59.0 °F - 39.2 °F 48% 29.86 in - SSE 8.1 mph - N/A   Clear
2:45 PM 59.0 °F - 39.2 °F 48% 29.86 in - SSE 9.2 mph - N/A   Clear
3:15 PM 59.0 °F - 39.2 °F 48% 29.86 in - SSE 8.1 mph - N/A   Clear
3:45 PM 59.0 °F - 41.0 °F 51% 29.86 in - South 6.9 mph - N/A   Clear
4:00 PM - - - N/A% - - Variable 3.5 mph - N/A   Clear
4:15 PM 59.0 °F - 41.0 °F 51% 29.86 in - SSE 5.8 mph - N/A   Clear
4:45 PM 59.0 °F - 41.0 °F 51% 29.86 in - SSE 3.5 mph - N/A   Clear
5:15 PM 59.0 °F - 41.0 °F 51% 29.86 in - South 4.6 mph - N/A   Clear
5:45 PM 57.2 °F - 41.0 °F 55% 29.86 in - SSE 1.2 mph - N/A   Clear
6:15 PM 55.4 °F - 41.0 °F 58% 29.86 in - NNE 1.2 mph - N/A   Clear
6:45 PM 55.4 °F - 41.0 °F 58% 29.86 in - NNE 2.3 mph - N/A   Clear
7:15 PM 55.4 °F - 41.0 °F 58% 29.86 in - NNE 2.3 mph - N/A   Clear
7:45 PM 55.4 °F - 41.0 °F 58% 29.86 in - North 2.3 mph - N/A   Clear
8:00 PM 54 °F - 40 °F 48% 29.86 in 37 mi North 2.2 mph - -   Partly Cloudy
8:15 PM 53.6 °F - 39.2 °F 58% 29.86 in - Calm Calm - N/A   Clear
8:45 PM 53.6 °F - 39.2 °F 58% 29.89 in - NW 3.5 mph - N/A   Clear
9:15 PM 51.8 °F - 41.0 °F 67% 29.89 in - NW 2.3 mph - N/A   Clear
9:45 PM 53.6 °F - 39.2 °F 58% 29.89 in - NW 4.6 mph - N/A   Clear
10:45 PM 50.0 °F - 39.2 °F 66% 29.89 in - NW 4.6 mph - N/A   Clear
11:45 PM 53.6 °F - 39.2 °F 58% 29.89 in - WNW 4.6 mph - N/A   Clear